Location: Sobotiste
(48.7170°N, 17.4000°E)
Time: 08:47:45
(UTC+02:00)

YUBILEINY - Pass Details

Date: 12 March 2026
Orbit: 1477 x 1509 km, 82.5° (Epoch: 17 April)

Event Time Altitude Azimuth Distance (km) Brightness Sun altitude
Rises 00:32:57 0° 352° (N) 4,629 ? -44.2°
Reaches altitude 10° 00:38:35 10° 20° (NNE) 3,638 ? -44.0°
Maximum altitude 00:41:50 12° 43° (NE) 3,450 ? -43.8°
Drops below altitude 10° 00:45:05 10° 65° (ENE) 3,626 ? -43.7°
Sets 00:50:37 0° 94° (E) 4,597 ? -43.4°
